Вернуться в каталог

SL-8 DEB

АктивенLEO
NORAD 1478·DEBRIS·🇷🇺 Russia

Запущен Mar 15, 1965 с Baikonur Cosmodrome

Loading…

Ближайшие Пролёты (ближайшие 24 часа)

TLE

СвежийSource: Space-Track

Эпоха: Sep 14, 2026, 10:57 UTC

1 01478U 65020BC  26257.45675276  .00000417  00000-0  26143-3 0  9998
2 01478  56.0750  54.0074 0586616  21.4168 341.0279 13.56164952936982

Отслеживайте SL-8 DEB в реальном времени с AllMySat

Download on the App Store